Location: Newark
(7.0858°N, 171.3717°E)
Time: 07:37:49
(UTC+00:00)

Courier 1B Rocket - Pass Details

Date: 06 December 2020
Orbit: 920 x 1202 km, 28.2° (Epoch: 17 January)

Event Time Altitude Azimuth Distance (km) Brightness Sun altitude
Rises 10:53:20 0° 227° (SW) 3,614 - -62.9°
Reaches altitude 10° 10:56:01 10° 221° (SW) 2,700 - -63.4°
Maximum altitude 11:02:15 46° 149° (SSE) 1,326 - -64.6°
Drops below altitude 10° 11:08:55 10° 77° (ENE) 2,888 - -65.9°
Sets 11:11:52 0° 71° (ENE) 3,889 - -66.4°
